EW6614 Weather Reports


Display with metric or nautical units.
time (UTC)temp
F
wind
direction
speed
MPH
gust
MPH
rain 1hr
in
rain 24hr
in
rain mn
in
humidity
%
barometer
mb
20260508173055 68 144 3.0 7.0 0.00 0.00 0.00 52 1012.5
20260508173038 68 142 2.0 7.0 0.00 0.00 0.00 64 1012.5
20260508171555 67 64 3.0 9.0 0.00 0.00 0.00 52 1012.5
20260508171546 67 59 4.0 9.0 0.00 0.00 0.00 64 1012.6
20260508170054 66 115 2.0 10.0 0.00 0.00 0.00 52 1012.8
20260508170037 66 85 3.0 8.0 0.00 0.00 0.00 63 1013.0
20260508164552 65 111 4.0 9.0 0.00 0.00 0.00 51 1012.7
20260508164536 65 106 5.0 9.0 0.00 0.00 0.00 62 1012.8
20260508163054 65 37 2.0 7.0 0.00 0.00 0.00 48 1012.9
20260508163032 65 52 1.0 7.0 0.00 0.00 0.00 60 1013.0
20260508161604 63 91 2.0 7.0 0.00 0.00 0.00 49 1013.4
20260508161537 63 80 1.0 7.0 0.00 0.00 0.00 60 1013.6
20260508160054 63 118 0.0 10.0 0.00 0.00 0.00 49 1013.6
20260508160031 63 113 0.0 4.0 0.00 0.00 0.00 61 1013.8
20260508154558 63 103 0.0 4.0 0.00 0.00 0.00 49 1013.4
20260508154523 63 84 1.0 4.0 0.00 0.00 0.00 60 1013.6
20260508153056 63 85 2.0 7.0 0.00 0.00 0.00 49 1013.2
20260508153032 63 82 1.0 7.0 0.00 0.00 0.00 61 1013.3
20260508151602 63 81 2.0 7.0 0.00 0.00 0.00 50 1013.6
20260508151535 63 80 2.0 7.0 0.00 0.00 0.00 61 1013.8
20260508150059 62 150 1.0 3.0 0.00 0.00 0.00 50 1013.9
20260508150023 62 360 1.0 3.0 0.00 0.00 0.00 62 1014.3
20260508144556 61 0 0.0 2.0 0.00 0.00 0.00 50 1014.5
20260508144517 61 360 0.0 2.0 0.00 0.00 0.00 61 1014.8
20260508143059 61 0 0.0 2.0 0.00 0.00 0.00 50 1014.7
20260508143016 61 360 0.0 2.0 0.00 0.00 0.00 61 1014.9
20260508141556 61 360 2.0 5.0 0.00 0.00 0.00 50 1014.2
20260508141515 61 360 3.0 5.0 0.00 0.00 0.00 61 1014.4
20260508140058 61 0 1.0 4.0 0.00 0.00 0.00 50 1014.3
20260508140014 61 360 0.0 4.0 0.00 0.00 0.00 61 1014.7
20260508134559 61 360 0.0 2.0 0.00 0.00 0.00 50 1013.9
20260508134514 61 360 0.0 2.0 0.00 0.00 0.00 61 1014.4
20260508133119 61 0 0.0 0.0 0.00 0.00 0.00 50 1013.7
20260508133013 61 360 0.0 0.0 0.00 0.00 0.00 61 1014.0
20260508131609 61 0 0.0 1.0 0.00 0.00 0.00 50 1012.8
20260508131512 61 360 0.0 1.0 0.00 0.00 0.00 61 1013.0
20260508130053 61 0 0.0 1.0 0.00 0.00 0.00 50 1012.7
20260508130011 61 360 0.0 1.0 0.00 0.00 0.00 61 1012.9
20260508124559 60 360 0.0 3.0 0.00 0.00 0.00 50 1012.9
20260508124514 60 360 0.0 3.0 0.00 0.00 0.00 62 1013.1
20260508123106 60 360 0.0 5.0 0.00 0.00 0.00 50 1013.1
20260508123011 60 360 1.0 5.0 0.00 0.00 0.00 62 1013.3
20260508121557 60 0 0.0 3.0 0.00 0.00 0.00 50 1013.5
20260508121506 60 360 0.0 2.0 0.00 0.00 0.00 62 1013.7
20260508120055 60 0 0.0 0.0 0.00 0.00 0.00 50 1013.1
20260508120005 60 360 0.0 0.0 0.00 0.00 0.00 62 1013.3
20260508114554 60 0 0.0 1.0 0.00 0.00 0.00 50 1012.9
20260508114504 60 360 0.0 1.0 0.00 0.00 0.00 62 1013.0
20260508113056 60 0 0.0 0.0 0.00 0.00 0.00 50 1013.2
20260508113002 60 360 0.0 0.0 0.00 0.00 0.00 62 1013.5
20260508111603 60 0 0.0 0.0 0.00 0.00 0.00 50 1013.4
20260508111502 60 360 0.0 0.0 0.00 0.00 0.00 62 1013.5
20260508110001 59 360 0.0 0.0 0.00 0.00 0.00 62 1013.8
20260508104600 59 360 0.0 0.0 0.00 0.00 0.00 62 1014.1
20260508104555 59 0 0.0 0.0 0.00 0.00 0.00 50 1013.9
20260508103100 59 360 0.0 0.0 0.00 0.00 0.00 62 1013.9
20260508103053 59 0 0.0 0.0 0.00 0.00 0.00 50 1013.6
20260508101559 59 360 0.0 1.0 0.00 0.00 0.00 62 1013.7
20260508101555 59 0 0.0 1.0 0.00 0.00 0.00 51 1013.5
20260508100058 58 360 0.0 1.0 0.00 0.00 0.00 62 1013.8
20260508100056 58 0 0.0 2.0 0.00 0.00 0.00 51 1013.8
20260508094612 58 360 0.0 0.0 0.00 0.00 0.00 62 1013.5
20260508094605 58 0 0.0 0.0 0.00 0.00 0.00 51 1013.4
20260508093058 58 0 0.0 2.0 0.00 0.00 0.00 51 1013.2
20260508091615 58 360 0.0 0.0 0.00 0.00 0.00 64 1013.1
20260508091600 58 0 0.0 0.0 0.00 0.00 0.00 52 1013.2
20260508090106 58 360 0.0 0.0 0.00 0.00 0.00 63 1013.1
20260508090055 58 0 0.0 0.0 0.00 0.00 0.00 52 1013.1
20260508084554 58 360 0.0 0.0 0.00 0.00 0.00 63 1013.5
20260508083101 58 0 0.0 0.0 0.00 0.00 0.00 52 1013.4
20260508083053 58 360 0.0 0.0 0.00 0.00 0.00 63 1013.5
20260508081619 58 0 0.0 1.0 0.00 0.00 0.00 52 1013.8
20260508081553 58 360 0.0 0.0 0.00 0.00 0.00 64 1014.1
20260508080053 58 0 0.0 0.0 0.00 0.00 0.00 52 1014.0
20260508080051 58 360 0.0 0.0 0.00 0.00 0.00 64 1014.3
20260508074555 58 0 0.0 0.0 0.00 0.00 0.00 52 1013.9
20260508074551 58 360 0.0 0.0 0.00 0.00 0.00 64 1014.1
20260508073052 58 0 0.0 0.0 0.00 0.00 0.00 53 1013.6
20260508071556 58 0 0.0 0.0 0.00 0.00 0.00 53 1013.8
20260508071552 58 360 0.0 0.0 0.00 0.00 0.00 65 1013.8
20260508070046 58 360 0.0 0.0 0.00 0.00 0.00 65 1014.1
20260508064555 58 0 0.0 0.0 0.00 0.00 0.00 54 1013.8
20260508064549 58 360 0.0 0.0 0.00 0.00 0.00 65 1014.0
20260508063114 58 360 0.0 0.0 0.00 0.00 0.00 65 1014.1
20260508063057 58 0 0.0 0.0 0.00 0.00 0.00 54 1014.0
20260508061558 59 0 0.0 0.0 0.00 0.00 0.00 54 1014.0
20260508061542 59 360 0.0 0.0 0.00 0.00 0.00 66 1014.2
20260508060042 59 360 1.0 3.0 0.00 0.00 0.00 66 1014.4
20260508054559 59 0 0.0 0.0 0.00 0.00 0.00 54 1014.4
20260508054543 59 360 0.0 0.0 0.00 0.00 0.00 66 1014.6
20260508053058 59 0 1.0 4.0 0.00 0.00 0.00 55 1014.1
20260508053051 59 360 1.0 4.0 0.00 0.00 0.00 66 1014.3
20260508051603 59 360 0.0 1.0 0.00 0.00 0.00 67 1014.2
20260508051554 59 0 0.0 1.0 0.00 0.00 0.00 55 1013.9
20260508050057 59 0 1.0 3.0 0.00 0.00 0.00 56 1014.1
20260508050038 59 360 0.0 3.0 0.00 0.00 0.00 67 1014.3
20260508044606 60 0 0.0 4.0 0.00 0.00 0.00 56 1014.9
20260508044535 60 360 0.0 4.0 0.00 0.00 0.00 67 1015.0
20260508043107 60 360 0.0 2.0 0.00 0.00 0.00 57 1014.0
20260508043034 60 360 0.0 2.0 0.00 0.00 0.00 68 1014.1
20260508041556 60 0 0.0 2.0 0.00 0.00 0.00 57 1013.5
20260508041533 60 360 0.0 2.0 0.00 0.00 0.00 68 1013.6
20260508040033 60 360 0.0 0.0 0.00 0.00 0.00 69 1014.2
20260508034557 61 0 0.0 3.0 0.00 0.00 0.00 57 1014.3
20260508034533 61 360 0.0 1.0 0.00 0.00 0.00 68 1014.6
20260508033058 61 0 0.0 2.0 0.00 0.00 0.00 57 1014.3
20260508033035 61 360 0.0 2.0 0.00 0.00 0.00 69 1014.5
20260508031631 61 360 0.0 1.0 0.00 0.00 0.00 69 1014.5
20260508031554 61 0 0.0 0.0 0.00 0.00 0.00 58 1014.3
20260508030105 61 0 0.0 3.0 0.00 0.00 0.00 58 1014.7
20260508030031 61 360 0.0 2.0 0.00 0.00 0.00 69 1015.0
20260508024553 61 0 0.0 1.0 0.00 0.00 0.00 58 1014.0
20260508024532 61 360 0.0 1.0 0.00 0.00 0.00 70 1014.1
20260508023055 61 360 0.0 4.0 0.00 0.00 0.00 59 1014.4
20260508023033 61 360 1.0 4.0 0.00 0.00 0.00 70 1014.4
20260508021555 61 360 1.0 5.0 0.00 0.00 0.00 59 1014.4
20260508021534 61 360 1.0 5.0 0.00 0.00 0.00 70 1014.5
20260508020129 62 360 0.0 1.0 0.00 0.00 0.00 71 1014.0
20260508020055 62 0 0.0 1.0 0.00 0.00 0.00 59 1014.0
20260508014556 62 0 0.0 0.0 0.00 0.00 0.00 60 1014.4
20260508014529 62 360 0.0 0.0 0.00 0.00 0.00 71 1014.6
20260508013058 62 0 1.0 4.0 0.00 0.00 0.00 60 1014.7
20260508013028 62 360 1.0 4.0 0.00 0.00 0.00 71 1014.8
20260508011604 62 360 0.0 4.0 0.00 0.00 0.00 60 1013.7
20260508011532 62 360 0.0 4.0 0.00 0.00 0.00 72 1013.6
20260508010053 62 360 0.0 3.0 0.00 0.00 0.00 60 1012.9
20260508010037 62 360 0.0 3.0 0.00 0.00 0.00 71 1013.0
20260508004601 63 360 0.0 0.0 0.00 0.00 0.00 60 1014.0
20260508004525 63 360 0.0 2.0 0.00 0.00 0.00 72 1014.0
20260508003110 63 0 0.0 0.0 0.00 0.00 0.00 60 1014.3
20260508003024 63 360 0.0 0.0 0.00 0.00 0.00 71 1014.2
20260508001554 63 0 0.0 1.0 0.00 0.00 0.00 59 1013.6
20260508001523 63 360 0.0 1.0 0.00 0.00 0.00 71 1013.6
20260508000100 63 0 1.0 4.0 0.00 0.00 0.00 59 1013.8
20260508000024 63 360 1.0 3.0 0.00 0.00 0.00 71 1013.9
20260507234606 64 0 1.0 4.0 0.00 0.00 0.00 59 1013.9
20260507234521 64 360 1.0 3.0 0.00 0.00 0.00 70 1013.9
20260507233057 65 166 0.0 4.0 0.00 0.00 0.00 57 1014.2
20260507233020 65 166 0.0 3.0 0.00 0.00 0.00 69 1014.1
20260507231609 65 159 3.0 5.0 0.00 0.00 0.00 56 1013.9
20260507231520 65 155 4.0 6.0 0.00 0.00 0.00 68 1013.9
20260507230030 66 5 0.0 0.0 0.00 0.00 0.00 66 1014.2
20260507224600 66 0 0.0 2.0 0.00 0.00 0.00 53 1014.4
20260507224522 66 5 0.0 2.0 0.00 0.00 0.00 65 1014.2
20260507223100 66 5 3.0 6.0 0.00 0.00 0.00 53 1014.6
20260507223028 66 5 3.0 6.0 0.00 0.00 0.00 65 1014.7
20260507221558 67 54 1.0 4.0 0.00 0.00 0.00 52 1014.3
20260507221517 67 66 0.0 4.0 0.00 0.00 0.00 63 1014.0
20260507220053 68 317 3.0 8.0 0.00 0.00 0.00 50 1014.2
20260507220017 68 323 3.0 8.0 0.00 0.00 0.00 62 1014.2
20260507214559 70 342 2.0 8.0 0.00 0.00 0.00 49 1014.5
20260507214517 70 329 4.0 8.0 0.00 0.00 0.00 61 1014.4
20260507213100 71 81 1.0 6.0 0.00 0.00 0.00 49 1014.1
20260507213016 71 80 1.0 5.0 0.00 0.00 0.00 60 1014.0
20260507211553 71 330 2.0 9.0 0.00 0.00 0.00 48 1014.3
20260507211515 71 355 3.0 9.0 0.00 0.00 0.00 60 1014.2
20260507210057 70 39 2.0 9.0 0.00 0.00 0.00 49 1014.2
20260507210017 70 360 1.0 8.0 0.00 0.00 0.00 61 1014.1
20260507204557 70 84 2.0 4.0 0.00 0.00 0.00 49 1014.6
20260507204513 70 84 1.0 4.0 0.00 0.00 0.00 61 1014.4
20260507203101 70 17 2.0 5.0 0.00 0.00 0.00 50 1015.0
20260507203028 70 15 2.0 5.0 0.00 0.00 0.00 61 1014.9
20260507201554 70 360 0.0 6.0 0.00 0.00 0.00 49 1014.8
20260507201513 70 360 0.0 6.0 0.00 0.00 0.00 61 1015.0
20260507200054 70 5 1.0 6.0 0.00 0.00 0.00 48 1015.1
20260507200020 71 320 2.0 5.0 0.00 0.00 0.00 60 1015.0
20260507194556 71 0 1.0 6.0 0.00 0.00 0.00 49 1015.0
20260507194511 71 344 1.0 6.0 0.00 0.00 0.00 61 1015.1
20260507193110 70 348 1.0 5.0 0.00 0.00 0.00 60 1015.6
20260507193058 70 0 2.0 5.0 0.00 0.00 0.00 49 1015.6
20260507191554 70 80 2.0 6.0 0.00 0.00 0.00 50 1015.4
20260507191509 70 80 2.0 6.0 0.00 0.00 0.00 61 1015.4
20260507190054 69 0 2.0 4.0 0.00 0.00 0.00 51 1015.6
20260507190006 69 107 2.0 4.0 0.00 0.00 0.00 62 1015.4
20260507184555 69 79 2.0 7.0 0.00 0.00 0.00 51 1015.8
20260507184509 69 89 3.0 5.0 0.00 0.00 0.00 61 1015.8
20260507183103 69 321 5.0 11.0 0.00 0.00 0.00 50 1015.8
20260507183007 69 338 6.0 11.0 0.00 0.00 0.00 62 1015.7
20260507181607 68 116 2.0 6.0 0.00 0.00 0.00 64 1015.9
20260507181552 68 112 1.0 10.0 0.00 0.00 0.00 53 1015.9
20260507180055 67 306 4.0 10.0 0.00 0.00 0.00 51 1015.9
20260507180004 68 338 3.0 10.0 0.00 0.00 0.00 63 1016.0
20260507174604 67 350 2.0 8.0 0.00 0.00 0.00 52 1016.0
20260507174504 67 27 1.0 8.0 0.00 0.00 0.00 63 1016.0